This demonstration page uses our WeatherBlox Daily Observations layout. Learn more.

Left ArrowRight Arrow

Hourly Observations for December 22, 2019

Temp ( °F °C ) Dew Point ( °F °C ) Humidity (%) Winds ( mph kmh ) Pressure ( in mb ) Visibility ( mi km ) Precip ( " mm )
12:53 am 00:53 Clear 41 5 25 -3.9 53 53 SW 14 22 29.71 1006 10 16 0.00 0.00
1:53 am 01:53 Clear 37 2.8 26 -3.3 65 65 SW 13 20 29.72 1007 10 16 0.00 0.00
2:53 am 02:53 Clear 37 2.8 25 -3.9 62 62 WSW 9 15 29.74 1007 10 16 0.00 0.00
3:53 am 03:53 Clear 37 2.8 24 -4.4 59 59 SW 3 6 29.75 1008 10 16 0.00 0.00
4:53 am 04:53 Clear 34 1.1 25 -3.9 70 70 SSW 8 13 29.77 1008 10 16 0.00 0.00
5:53 am 05:53 Clear 34 1.1 25 -3.9 70 70 SSW 10 17 29.79 1009 10 16 0.00 0.00
6:53 am 06:53 Clear 32 0 26 -3.3 79 79 NW 5 7 29.82 1010 10 16 0.00 0.00
7:53 am 07:53 Clear 33 0.6 27 -2.8 78 78 NW 10 17 29.86 1011 10 16 0.00 0.00
8:53 am 08:53 Sunny 30 -1.1 26 -3.3 85 85 NW 6 9 29.91 1013 7 11 0.00 0.00
9:53 am 09:53 Sunny 31 -0.6 27 -2.8 85 85 Calm 29.94 1014 7 11 0.00 0.00
10:53 am 10:53 Sunny 33 0.6 28 -2.2 82 82 ESE 5 7 29.96 1015 10 16 0.00 0.00
11:53 am 11:53 Sunny 39 3.9 28 -2.2 65 65 ENE 7 11 29.93 1013 10 16 0.00 0.00
12:53 pm 12:53 Sunny 41 5 29 -1.7 62 62 ENE 10 17 29.91 1013 10 16 0.00 0.00
1:53 pm 13:53 Sunny 42 5.6 30 -1.1 62 62 ENE 15 24 29.90 1012 10 16 0.00 0.00
2:53 pm 14:53 Sunny 37 2.8 30 -1.1 76 76 NE 14 22 29.91 1013 10 16 0.00 0.00
3:53 pm 15:53 Sunny 36 2.2 29 -1.7 76 76 ENE 15 24 29.91 1013 10 16 0.00 0.00
4:53 pm 16:53 Clear 33 0.6 27 -2.8 78 78 ENE 15 24 29.92 1013 10 16 0.00 0.00
5:53 pm 17:53 Clear 31 -0.6 26 -3.3 82 82 ENE 15 24 29.92 1013 10 16 0.00 0.00
6:53 pm 18:53 Clear 30 -1.1 26 -3.3 85 85 E 20 31 29.91 1013 10 16 0.00 0.00
7:53 pm 19:53 Clear 29 -1.7 25 -3.9 85 85 E 22 35 29.90 1013 10 16 0.00 0.00
8:53 pm 20:53 Clear 28 -2.2 24 -4.4 85 85 ENE 17 28 29.90 1012 8 13 0.00 0.00
9:53 pm 21:53 Clear with Mist and Fog 26 -3.3 23 -5 88 88 E 20 31 29.88 1012 5 8 0.00 0.00
10:38 pm 22:38 Mostly Clear with Mist and Fog 25 -3.9 23 -5 92 92 ENE 20 31 29.92 1013 4 6 0.00 0.00
10:53 pm 22:53 Partly Cloudy with Mist and Fog 25 -3.9 24 -4.4 96 96 ENE 18 30 29.86 1011 4 6 0.00 0.00
11:01 pm 23:01 Mostly Cloudy with Mist and Fog 25 -3.9 24 -4.4 96 96 ENE 16 26 29.92 1013 4 6 0.00 0.00
11:21 pm 23:21 Partly Cloudy 26 -3.3 24 -4.4 92 92 E 20 31 29.90 1013 7 11 0.00 0.00
11:53 pm 23:53 Clear 26 -3.3 24 -4.4 92 92 E 13 20 29.83 1010 10 16 0.00 0.00

Powered by AerisWeather